{"data":{"norad_id":60725,"intl_designator":"2024-152F","name":"STARLINK-11263 [DTC]","alt_names":[],"object_type":"PAYLOAD","status":"ACTIVE","operator":null,"country":"US","launch_date":"2024-08-28","launch_site_code":"AFETR","launch_vehicle":null,"mission":null,"orbit_class":"UNKNOWN","rcs_meters":null,"size_class":null,"mass_kg":null,"dimensions":null,"purposes":["comms"],"wikipedia_slug":null,"has_3d_model":false,"image_url":null,"decayed_at":null,"tle_current":{"epoch":"2026-05-25T03:36:33.149952Z","epoch_age_seconds":55349,"freshness":"FRESH","line1":"1 60725U 24152F   26145.15038368  .00003126  00000+0  30670-4 0  9997","line2":"2 60725  53.1587  99.3672 0000969  79.8875 280.2252 15.69692361100847","mean_motion":15.69692361,"eccentricity":9.69e-5,"inclination_deg":53.1587,"raan_deg":99.3672,"arg_perigee_deg":79.8875,"mean_anomaly_deg":280.2252,"bstar":3.067e-5,"rev_number":10084,"period_min":91.737721083297,"perigee_km":359.12432307001,"apogee_km":360.4301308472,"semimajor_km":6737.9142269586,"source":"CELESTRAK","updated_at":"2026-05-25T13:38:19.307314Z"}}}